Walhalla, ND

7:08 AM CST on November 18, 2017 (GMT -0600)
Walhalla

Weather History for K96D - March, 2014

Change the Weather History Date:

Thursday, March 27, 2014

  Actual Average (KGAF) Record (KGAF)
Temperature  
Mean Temperature 20 °F -  
Max Temperature 26 °F 39 °F 63 °F (1977)
Min Temperature 14 °F 21 °F -15 °F (1964)
Degree Days  
Heating Degree Days 45    
Moisture  
Dew Point 11 °F    
Average Humidity 69    
Maximum Humidity 100    
Minimum Humidity 43    
Precipitation  
Precipitation 0.00 in - - ()
Sea Level Pressure  
Sea Level Pressure 29.85 in    
Wind  
Wind Speed 15 mph (North)    
Max Wind Speed 22 mph    
Max Gust Speed 30 mph    
Visibility 10 miles    
Events      
Averages and records for this station are not official NWS values.
T = Trace of Precipitation, MM = Missing Value Source: NWS Daily Summary

Daily Weather History Graph

Daily Weather History Graph

Search for Another Location

Airport or City:

Trip Planner

Search our weather history database for the weather conditions in past years. The results will help you decide how hot, cold, wet, or windy it might be!

Date:

Astronomy

Mar. 27, 2014 Rise Set
Actual Time 7:19 AM CDT 7:55 PM CDT
Civil Twilight 6:47 AM CDT 8:27 PM CDT
Nautical Twilight 6:10 AM CDT 9:04 PM CDT
Astronomical Twilight 5:30 AM CDT 9:44 PM CDT
Moon 5:28 AM CDT (3/27) 4:29 PM CDT (3/27)
Length of Visible Light 13h 39m
Length of Day
12h 35m
Waning Crescent, 13% of the Moon is Illuminated
Mar 27
Waning Crescent
Mar 30
New
Apr 7
First Quarter
Apr 15
Full
Apr 22
Last Quarter

Hourly Weather History & Observations

Time (CDT) Temp. Windchill Dew Point Humidity Pressure Visibility Wind Dir Wind Speed Gust Speed Precip Events Conditions
12:15 AM 23.0 °F 11.7 °F 23.0 °F 100% 29.70 in 10.0 mi North 11.5 mph - N/A   Overcast
12:35 AM 23.0 °F 11.7 °F 23.0 °F 100% 29.70 in 10.0 mi NNE 11.5 mph - N/A   Overcast
12:55 AM 23.0 °F 10.6 °F 23.0 °F 100% 29.70 in 10.0 mi NNE 13.8 mph 18.4 mph N/A   Overcast
1:15 AM 23.0 °F 11.1 °F 23.0 °F 100% 29.70 in 10.0 mi NNE 12.7 mph 18.4 mph N/A   Mostly Cloudy
1:35 AM 21.2 °F 8.3 °F 19.4 °F 93% 29.70 in 10.0 mi NNE 13.8 mph 18.4 mph N/A   Mostly Cloudy
1:55 AM 19.4 °F 7.2 °F 19.4 °F 100% 29.70 in 10.0 mi North 11.5 mph - N/A   Mostly Cloudy
2:15 AM 19.4 °F 7.2 °F 17.6 °F 93% 29.70 in 10.0 mi North 11.5 mph - N/A   Mostly Cloudy
2:35 AM 19.4 °F 6.6 °F 19.4 °F 100% 29.70 in 10.0 mi North 12.7 mph - N/A   Mostly Cloudy
2:55 AM 19.4 °F 6.6 °F 17.6 °F 93% 29.71 in 10.0 mi North 12.7 mph - N/A   Mostly Cloudy
3:15 AM 19.4 °F 6.6 °F 17.6 °F 93% 29.71 in 10.0 mi North 12.7 mph - N/A   Overcast
3:35 AM 19.4 °F 6.6 °F 17.6 °F 93% 29.71 in 10.0 mi North 12.7 mph - N/A   Overcast
3:55 AM 19.4 °F 6.6 °F 19.4 °F 100% 29.71 in 10.0 mi North 12.7 mph - N/A   Overcast
4:15 AM 19.4 °F 6.0 °F 19.4 °F 100% 29.72 in 10.0 mi North 13.8 mph - N/A   Overcast
4:35 AM 21.2 °F 7.3 °F 19.4 °F 93% 29.72 in 10.0 mi North 16.1 mph 19.6 mph N/A   Overcast
4:55 AM 21.2 °F 7.3 °F 19.4 °F 93% 29.74 in 10.0 mi North 16.1 mph 20.7 mph N/A   Overcast
5:15 AM 21.2 °F 7.3 °F 19.4 °F 93% 29.75 in 10.0 mi North 16.1 mph 21.9 mph N/A   Overcast
5:35 AM 21.2 °F 6.4 °F 17.6 °F 86% 29.75 in 10.0 mi North 18.4 mph - N/A   Overcast
5:55 AM 19.4 °F 5.5 °F 17.6 °F 93% 29.76 in 10.0 mi North 15.0 mph - N/A   Overcast
6:15 AM 19.4 °F 6.6 °F 17.6 °F 93% 29.77 in 10.0 mi North 12.7 mph - N/A   Overcast
6:35 AM 17.6 °F 3.7 °F 17.6 °F 100% 29.78 in 10.0 mi North 13.8 mph - N/A   Overcast
6:55 AM 17.6 °F 3.7 °F 17.6 °F 100% 29.79 in 10.0 mi North 13.8 mph - N/A   Overcast
7:15 AM 17.6 °F 3.2 °F 15.8 °F 93% 29.80 in 10.0 mi North 15.0 mph 20.7 mph N/A   Overcast
7:35 AM 17.6 °F 2.2 °F 14.0 °F 86% 29.80 in 10.0 mi North 17.3 mph 20.7 mph N/A   Mostly Cloudy
7:55 AM 17.6 °F 3.2 °F 14.0 °F 86% 29.81 in 10.0 mi North 15.0 mph - N/A   Partly Cloudy
8:15 AM 17.6 °F 3.7 °F 14.0 °F 86% 29.82 in 10.0 mi North 13.8 mph 19.6 mph N/A   Clear
8:35 AM 17.6 °F 3.7 °F 14.0 °F 86% 29.82 in 10.0 mi North 13.8 mph 17.3 mph N/A   Clear
8:55 AM 17.6 °F 3.2 °F 10.4 °F 73% 29.82 in 10.0 mi North 15.0 mph - N/A   Mostly Cloudy
9:15 AM 19.4 °F 4.5 °F 6.8 °F 58% 29.83 in 10.0 mi North 17.3 mph - N/A   Scattered Clouds
9:35 AM 19.4 °F 5.0 °F 5.0 °F 54% 29.83 in 10.0 mi North 16.1 mph 20.7 mph N/A   Clear
9:55 AM 19.4 °F 5.0 °F 5.0 °F 54% 29.83 in 10.0 mi North 16.1 mph - N/A   Clear
10:15 AM 21.2 °F 6.4 °F 5.0 °F 50% 29.84 in 10.0 mi North 18.4 mph - N/A   Clear
10:35 AM 21.2 °F 6.8 °F 5.0 °F 50% 29.85 in 10.0 mi North 17.3 mph 21.9 mph N/A   Clear
10:55 AM 23.0 °F 10.1 °F 5.0 °F 46% 29.86 in 10.0 mi North 15.0 mph - N/A   Clear
11:15 AM 23.0 °F 10.1 °F 6.8 °F 50% 29.86 in 10.0 mi North 15.0 mph 19.6 mph N/A   Clear
11:35 AM 23.0 °F 9.2 °F 6.8 °F 50% 29.86 in 10.0 mi North 17.3 mph - N/A   Clear
11:55 AM 24.8 °F 11.5 °F 6.8 °F 46% 29.87 in 10.0 mi North 17.3 mph - N/A   Clear
12:15 PM 24.8 °F 10.7 °F 6.8 °F 46% 29.87 in 10.0 mi North 19.6 mph 23.0 mph N/A   Clear
12:35 PM 24.8 °F 10.7 °F 6.8 °F 46% 29.87 in 10.0 mi North 19.6 mph 26.5 mph N/A   Clear
12:55 PM 26.6 °F 13.1 °F 8.6 °F 47% 29.87 in 10.0 mi North 19.6 mph 26.5 mph N/A   Clear
1:15 PM 26.6 °F 12.4 °F 8.6 °F 47% 29.87 in 10.0 mi North 21.9 mph - N/A   Clear
1:35 PM 26.6 °F 13.4 °F 8.6 °F 47% 29.87 in 10.0 mi North 18.4 mph 29.9 mph N/A   Clear
1:55 PM 26.6 °F 12.7 °F 8.6 °F 47% 29.88 in 10.0 mi North 20.7 mph 26.5 mph N/A   Clear
2:15 PM 26.6 °F 12.4 °F 6.8 °F 43% 29.88 in 10.0 mi North 21.9 mph 28.8 mph N/A   Clear
2:35 PM 26.6 °F 12.4 °F 8.6 °F 47% 29.88 in 10.0 mi North 21.9 mph 29.9 mph N/A   Clear
2:55 PM 24.8 °F 10.7 °F 8.6 °F 50% 29.88 in 10.0 mi North 19.6 mph 25.3 mph N/A   Clear
3:15 PM 24.8 °F 10.3 °F 6.8 °F 46% 29.89 in 10.0 mi North 20.7 mph 27.6 mph N/A   Clear
3:35 PM 24.8 °F 11.5 °F 6.8 °F 46% 29.89 in 10.0 mi North 17.3 mph 25.3 mph N/A   Clear
3:55 PM 24.8 °F 10.7 °F 6.8 °F 46% 29.89 in 10.0 mi North 19.6 mph - N/A   Clear
4:15 PM 24.8 °F 10.0 °F 8.6 °F 50% 29.89 in 10.0 mi North 21.9 mph - N/A   Clear
4:35 PM 24.8 °F 10.7 °F 8.6 °F 50% 29.90 in 10.0 mi North 19.6 mph - N/A   Clear
4:55 PM 24.8 °F 10.3 °F 8.6 °F 50% 29.91 in 10.0 mi NNE 20.7 mph - N/A   Clear
5:15 PM 23.0 °F 8.7 °F 6.8 °F 50% 29.91 in 10.0 mi North 18.4 mph 27.6 mph N/A   Clear
5:35 PM 23.0 °F 8.7 °F 6.8 °F 50% 29.92 in 10.0 mi North 18.4 mph 24.2 mph N/A   Clear
5:55 PM 23.0 °F 8.3 °F 6.8 °F 50% 29.92 in 10.0 mi North 19.6 mph - N/A   Clear
6:15 PM 23.0 °F 8.7 °F 6.8 °F 50% 29.92 in 10.0 mi North 18.4 mph 24.2 mph N/A   Clear
6:35 PM 23.0 °F 8.0 °F 6.8 °F 50% 29.93 in 10.0 mi North 20.7 mph 24.2 mph N/A   Clear
6:55 PM 21.2 °F 6.8 °F 5.0 °F 50% 29.93 in 10.0 mi North 17.3 mph 23.0 mph N/A   Clear
7:15 PM 21.2 °F 6.0 °F 6.8 °F 54% 29.94 in 10.0 mi North 19.6 mph 23.0 mph N/A   Clear
7:35 PM 19.4 °F 4.1 °F 6.8 °F 58% 29.95 in 10.0 mi North 18.4 mph - N/A   Clear
7:55 PM 19.4 °F 4.5 °F 6.8 °F 58% 29.95 in 10.0 mi North 17.3 mph - N/A   Clear
8:15 PM 17.6 °F 4.3 °F 6.8 °F 63% 29.96 in 10.0 mi North 12.7 mph - N/A   Clear
8:35 PM 17.6 °F 4.3 °F 8.6 °F 68% 29.97 in 10.0 mi NNW 12.7 mph - N/A   Scattered Clouds
8:55 PM 17.6 °F 4.3 °F 6.8 °F 63% 29.97 in 10.0 mi NNW 12.7 mph - N/A   Partly Cloudy
9:15 PM 17.6 °F 3.7 °F 6.8 °F 63% 29.98 in 10.0 mi North 13.8 mph - N/A   Partly Cloudy
9:35 PM 17.6 °F 5.0 °F 6.8 °F 63% 29.99 in 10.0 mi NNW 11.5 mph - N/A   Partly Cloudy
9:55 PM 17.6 °F 5.0 °F 6.8 °F 63% 29.99 in 10.0 mi NNW 11.5 mph 16.1 mph N/A   Clear
10:15 PM 15.8 °F 3.4 °F 6.8 °F 68% 30.00 in 10.0 mi North 10.4 mph - N/A   Clear
10:35 PM 15.8 °F 2.7 °F 6.8 °F 68% 30.00 in 10.0 mi North 11.5 mph - N/A   Clear
10:55 PM 15.8 °F 5.1 °F 6.8 °F 68% 30.00 in 10.0 mi NNW 8.1 mph - N/A   Clear
11:15 PM 14.0 °F 3.9 °F 6.8 °F 73% 30.01 in 10.0 mi NW 6.9 mph - N/A   Clear
11:35 PM 14.0 °F 1.2 °F 6.8 °F 73% 30.02 in 10.0 mi NW 10.4 mph - N/A   Clear
11:55 PM 14.0 °F 2.9 °F 6.8 °F 73% 30.02 in 10.0 mi NW 8.1 mph - N/A   Clear